Starlink 5330

operational
NORAD ID: 55282 Int'l Des: 2023-010 Owner: SPXS Country: US Constellation: starlink
LEOCIRCULAR

关于 Starlink 5330

正在加载描述...

实时位置

正在加载3D地球...

即将过境

高度历史

Altitude vs Time

uPlot chart will show altitude changes over time

两行轨道根数

1 55282U 23010P 25349.32810590 .00086304 00000-0 70348-2 0 9994
2 55282 69.9985 256.9831 0004661 284.1168 75.9473 14.98965132160146
Epoch: Dec 15, 2025 • Age: 29 hours

当前状态

高度 584.1 km
速度 7.57 km/s
星下点 69.73°N, 73.14°E
发射日期 Jan 19, 2023
运行时间 2.9 years
类型 internet

技术详情

分类 Payload
质量 305.00 kg
干质量 290.00 kg
总质量 305.00 kg
长度 0.20 m
直径 2.80 m
跨度 9.00 m
形状 Box + pan
制造商 SPXS
平台类型 Starlink
阶段状态 In Orbit
所有者/国家 SPXS/US

大型星座

Loading constellations...